Location: Jonesport
(44.5330°N, 67.5990°W)
Time: 14:07:32
(UTC-04:00)

Iridium 35 - Visible Passes

Search period start: 29 June 2016 00:00
Search period end: 09 July 2016 00:00
Orbit: 776 x 779 km, 86.4° (Epoch: 28 June)

Date Brightness Start Highest point End Pass type
(mag) Time Alt. Az. Time Alt. Az. Time Alt. Az.
29 Jun 4.9 00:46:13 10° N 00:51:28 88° W 00:52:46 53° S visible
29 Jun 7.2 02:29:51 10° WNW 02:31:20 11° WNW 02:32:48 10° W visible
30 Jun 5.5 00:12:47 10° N 00:17:54 52° E 00:19:16 41° SE visible
30 Jun 6.7 01:54:27 10° NNW 01:58:11 20° W 01:59:44 18° WSW visible
30 Jun 6.3 23:39:38 10° NNE 23:44:11 29° ENE 23:45:46 25° ESE visible
01 Jul 5.9 01:20:13 10° NNW 01:24:56 35° W 01:26:13 30° WSW visible
01 Jul 6.9 23:06:57 10° NNE 23:10:21 17° ENE 23:12:16 14° E visible
02 Jul 5.2 00:46:23 10° N 00:51:33 63° W 00:52:44 49° SW visible
03 Jul 5.0 00:12:48 10° N 00:18:02 74° E 00:19:14 53° SSE visible
03 Jul 7.1 01:55:22 10° NW 01:58:04 14° WNW 01:59:42 13° W visible
03 Jul 5.8 23:39:27 10° N 23:44:25 41° E 23:45:45 34° ESE visible
04 Jul 6.4 01:20:40 10° NNW 01:24:52 25° W 01:26:13 22° WSW visible
04 Jul 6.5 23:06:27 10° NNE 23:10:39 24° ENE 23:12:17 20° ESE visible
05 Jul 5.7 00:46:37 10° NNW 00:51:34 44° W 00:52:45 38° WSW visible
05 Jul 7.1 22:34:09 10° NE 22:36:44 14° ENE 22:38:48 11° E visible
06 Jul 5.0 00:12:53 10° N 00:18:08 79° W 00:19:16 55° SSW visible
06 Jul 5.2 23:39:24 10° N 23:44:34 58° E 23:45:48 46° SE visible
07 Jul 6.9 01:21:20 10° NW 01:24:47 18° WNW 01:26:16 16° W visible
07 Jul 6.0 23:06:11 10° NNE 23:10:53 33° E 23:12:21 28° ESE visible
08 Jul 6.2 00:46:58 10° NNW 00:51:32 31° W 00:52:49 28° WSW visible
08 Jul 6.7 22:33:22 10° NNE 22:37:04 19° ENE 22:38:53 16° E visible
